www.pogodaiklimat.ru

Погода и климат >> Архив погоды >> Россия >> Якутия >> Крестях


ПОГОДА в Крестяхе

  • Прогноз погоды в Крестяхе
  • Монитор погоды в Крестяхе

АРХИВ ПОГОДЫ в Крестяхе

Время (UTC), дата Ветер
(напр.,м/с)
 
Видим.   Явления Облачность Т
(С)
Тd
(С)
f
(%)
Тe
(С)
Тes
(С)
Комфортность P
(гПа)
Po
(гПа)
Тmin
(С)
Tmax
(С)
R
(мм)
R24
(мм)
S
(см)
03 12.08 С 2 20 км 3/0
[Ci fib]
+21.2 +11.1 52 +23 +32 комфорт 1005.6 989.6
06 12.08 В 3 20 км 6/1 600 м
[Cu hum Ci fib]
+23.2 +7.3 36 +24 +30 комфорт 1004.9 989.0
09 12.08 В 3 20 км 10/1 600 м
[Cu hum Ci fib]
+23.3 +7.2 35 +24 +26 комфорт 1005.0 989.1
12 12.08 штиль 0 50 км ?/? +19.0 +13.2 69 +20 +20 1006.0 989.9 +24.4
15 12.08 штиль 0 20 км 10/0
[Ac trans Ci fib]
+11.3 +9.7 90 +11 +11 1007.2 990.6
18 12.08 штиль 0 20 км 10/0
[Ac trans Cs]
+9.5 +8.7 95 +9 +9 1008.0 991.3
21 12.08 штиль 0 20 км 10/0
[Ac trans Cs]
+6.5 +6.1 97 +5 +5 1008.3 991.4
00 13.08 С 2 20 км 10/0
[As trans Ci fib]
+11.9 +10.6 92 +11 +13 1008.5 991.9 +6.2
03 13.08 З 2 2000 м мгла 8/0
[Ci fib]
+19.4 +12.3 63 +21 +29 комфорт 1007.9 991.8
06 13.08 ЮЗ 2 20 км 8/3 600 м
[Cu med, cong Ci fib]
+23.6 +9.5 41 +25 +30 комфорт 1006.4 990.5
09 13.08 В 2 10 км 6/3 600 м
[Cu Sc Ci fib]
+24.7 +9.3 38 +25 +27 комфорт 1005.6 989.8
12 13.08 С 1 10 км 10/4 600 м
[Sc Ci fib]
+19.5 +13.8 70 +22 +22 комфорт 1006.6 990.5 +25.0
15 13.08 СВ 1 20 км 10/3 600 м
[Sc Ci fib]
+14.2 +11.2 82 +15 +15 1006.9 990.4
18 13.08 штиль 0 20 км 10/0
[Cs]
+12.2 +10.9 92 +12 +12 1007.0 990.4
21 13.08 штиль 0 20 км 10/4 600 м
[Sc As trans]
+12.6 +10.9 89 +12 +12 1007.3 990.7
00 14.08 С 3 10 км 10/4 600 м
[Sc Ci fib]
+14.4 +10.6 78 +13 +15 1007.8 991.3 +11.2
03 14.08 СЗ 2 20 км мгла 3/3 600 м
[Sc]
+20.8 +13.1 61 +24 +30 комфорт 1006.8 990.8
06 14.08 С 3 20 км 10/6 600 м
[Cb cap Ci fib]
+24.4 +9.4 39 +25 +27 комфорт 1006.0 990.2
09 14.08 СЗ 1 20 км {ливн. осадки} 10/8 600 м
[Cb cap Ci fib]
+18.8 +16.3 85 +21 +22 комфорт 1006.3 990.2
12 14.08 СЗ 2 20 км {ливн. осадки} 10/8 600 м
[Cb cap Ci fib]
+17.8 +17.0 95 +18 +18 1007.7 991.5 +26.0 0.5
15 14.08 штиль 0 20 км 10/10 600 м
[Sc]
+14.2 +13.1 93 +14 +14 1008.8 992.3
18 14.08 штиль 0 20 км 10/10 600 м
[Sc]
+15.6 +11.5 77 +15 +15 1009.4 992.8
21 14.08 С 1 20 км 10/10 600 м
[Sc]
+12.2 +10.7 91 +12 +12 1010.0 993.4
00 15.08 С 1 20 км 10/4 600 м
[Cu med, cong Ci fib]
+14.4 +9.3 71 +15 +17 1011.1 994.5 +11.1
03 15.08 С 2 2000 м мгла 10/0
[Ci fib]
+21.8 +13.1 58 +24 +31 комфорт 1010.3 994.2
06 15.08 С 1 2000 м мгла 10/10 600 м
[Sc]
+23.1 +11.8 49 +26 +26 жарко 1010.1 994.1
09 15.08 С 2 2000 м гроза, ливневой дождь 10/10 600 м
[Cb cap]
+23.2 +11.7 48 +26 +26 жарко 1009.9 993.9
12 15.08 С 1 20 км слаб. ливневой дождь {гроза} 10/10 600 м
[Cb cap]
+14.7 +14.0 96 +15 +15 1012.6 996.2 +24.4 8
15 15.08 С 1 20 км {ливн. осадки} 10/10 600 м
[Sc]
+14.0 +13.3 96 +14 +14 1013.0 996.4
18 15.08 штиль 0 20 км {ливн. осадки} 10/10 600 м
[Sc]
+14.2 +13.1 93 +14 +14 1013.3 996.7
21 15.08 С 1 20 км 10/10 600 м
[Sc]
+12.8 +11.7 93 +13 +13 1014.2 997.6
00 16.08 С 2 20 км слаб. дождь 10/0 600 м
[As op]
+12.7 +11.8 94 +12 +12 1014.9 998.3 +12.3 0.5
03 16.08 С 2 20 км слаб. дождь 10/0 600 м
[As op]
+12.5 +11.4 93 +11 +13 1014.9 998.3
06 16.08 С 3 10 км {дождь} 10/10 300 м
[Frnb]
+12.5 +11.0 91 +11 +11 1015.4 998.6
09 16.08 С 2 10 км {морось} 10/10 300 м
[St]
+12.1 +11.0 93 +11 +11 1015.7 998.9
12 16.08 С 2 10 км {дождь, морось} 10/10 300 м
[St]
+11.5 +10.7 95 +10 +10 1015.9 999.1 +13.0 1
15 16.08 С 2 10 км слаб. ливневой дождь 10/10 300 м
[Frnb]
+11.1 +10.3 95 +10 +10 1015.7 998.9
18 16.08 штиль 0 10 км {ливн. осадки} 10/10 300 м
[Frnb]
+10.3 +9.9 97 +9 +9 1015.1 998.2
21 16.08 С 2 10 км 10/10 300 м
[St]
+10.7 +10.3 97 +9 +9 1014.5 997.7
00 17.08 С 2 20 км 10/10 300 м
[St]
+11.4 +11.0 97 +10 +10 1014.0 997.3 +10.2 2
03 17.08 С 2 20 км слаб. дождь 10/0 300 м
[As op]
+12.1 +11.0 93 +11 +13 1013.4 996.7
06 17.08 С 2 20 км слаб. дождь 10/0 300 м
[As op]
+13.4 +13.0 97 +13 +14 1013.0 996.4
09 17.08 С 2 20 км слаб. морось {дождь} 10/0 300 м
[As op]
+14.3 +13.8 97 +14 +14 1012.4 995.8
12 17.08 С 2 20 км слаб. морось {дождь} 10/10 300 м
[St]
+14.2 +13.8 97 +14 +14 1013.2 996.6 +14.5 5
15 17.08 С 1 20 км {морось} 10/10 600 м
[St]
+13.9 +13.5 97 +14 +14 1012.2 995.6
18 17.08 штиль 0 20 км {ливн. осадки, морось} 10/4 600 м
[Cb cap Cs]
+13.0 +12.6 97 +12 +12 1011.0 994.4
21 17.08 СЗ 1 20 км 10/10 600 м
[Sc]
+12.8 +12.4 97 +13 +13 1010.8 994.2
00 18.08 С 2 20 км 10/10 600 м
[Sc]
+14.8 +14.4 97 +14 +14 1010.6 994.2 +12.6 2
03 18.08 СВ 3 20 км 10/10 600 м
[Cb cap]
+16.4 +13.6 84 +16 +16 1010.7 994.4
06 18.08 В 3 20 км 10/10 600 м
[Cb cap]
+15.6 +10.3 71 +15 +15 1011.0 994.6
09 18.08 СВ 5 20 км в посл. час ливневой дождь 10/10 600 м
[Cb cap]
+14.0 +10.8 81 +12 +12 1011.8 995.2
12 18.08 С 3 20 км слаб. ливневой дождь 10/10 600 м
[Cb cap]
+12.6 +11.5 93 +11 +11 1012.3 995.7 +17.0 0.3
15 18.08 С 2 20 км слаб. дождь 10/0
[As op]
+11.7 +10.9 95 +10 +10 1011.3 994.6
18 18.08 штиль 0 20 км слаб. дождь 10/0
[As op]
+11.7 +10.7 94 +11 +11 1011.0 994.3
21 18.08 штиль 0 20 км слаб. дождь 10/0
[As op]
+11.2 +10.8 97 +10 +10 1010.8 994.1
00 19.08 СЗ 2 20 км слаб. дождь 10/0 600 м
[As op]
+11.7 +11.3 97 +10 +11 1009.6 992.9 +10.8 6

 

Местоположение метеостанции Крестях (Якутия, Россия): широта 62.27 долгота 116.10 высота над уровнем моря 139 м.

В архиве по умолчанию представлена погода в Крестяхе за последнюю неделю. Архивные данные за месяц целиком и за предыдущие месяцы, начиная с января 2011 года, Вы можете получить, выбрав интересующий диапазон дат из раскрывающегося списка и нажав кнопку "Ввод!".


*Определитесь, кто Вы:
робот инопланетянин человек

Внимание! Время в таблицах - всемирное. Для получения местного времени необходимо прибавить поправку, которая равна 9 ч.

Смотрите также архив погоды в соседних городах и на ближайших метеорологических станциях:

Погода в Сунтаре (Якутия, Россия) (79 км)
Погода в Дорожном (Якутия, Россия) (107 км)
Погода в Мирном (Якутия, Россия) (122 км)
Погода в Нюрбе (Якутия, Россия) (159 км)
Погода в Ленске (Якутия, Россия) (186 км)
Погода в Чернышевском (Якутия, Россия) (207 км)
Погода в Чумпуруке (Якутия, Россия) (222 км)
Погода в Килиере (Якутия, Россия) (224 км)
Погода в Верхневилюйске (Якутия, Россия) (246 км)
Погода в Туой-Хае (Якутия, Россия) (254 км)

Пояснения к столбцам:

Ветер - указаны скорость ветра в м/с - средняя за 10 мин, порывы в срок и между сроками (в фигурных скобках) и направление, откуда дует ветер: С - северный, СВ - северо-восточный, В - восточный, ЮВ - юго-восточный, Ю - южный, ЮЗ - юго-западный, З - западный, СЗ - северо-западный.
Видимость - горизонтальная дальность видимости в метрах или километрах. При видимости от 1 до 10 км при отсутствии осадков обычно наблюдается дымка, при ухудшении видимости до 1 км и менее - туман. В сухую погоду видимость может ухудшаться дымом, пылью или мглою.
Явления - указаны атмосферные явления, наблюдавшиеся в срок или в последний час перед сроком; фигурными скобками обозначены явления, наблюдавшиеся между сроками (за 1-3 часа до срока); квадратными скобками обозначены град или гололедные отложения с указанием их диаметра в мм.
Облачность - указаны через наклонную черту общая и нижняя облачность в баллах и высота нижней границы облаков в метрах; квадратными скобками обозначены формы облаков: Ci - перистые, Cs - перисто-слоистые, Cc - перисто-кучевые, Ac - высококучевые, As - высокослоистые, Sc - слоисто-кучевые, Ns - слоисто-дождевые, Cu - кучевые, Cb - кучево-дождевые. Подробнее классификацию облаков см. в Атласе облаков (PDF).
T - Температура воздуха - температура, измеренная на высоте 2 м над землей.
Td - Температура точки росы - температура, при понижении до которой содержащийся в воздухе водяной пар достигнет насыщения.
f - Относительная влажность воздуха - влажноcть воздуха, измеренная на высоте 2 м над землей.
Te - Эффективная температура - температура, которую ощущает одетый по сезону человек в тени. Характеристика душности погоды. При расчете учитывается влияние влажности воздуха и скорости ветра на теплоощущения человека.
Tes - Эффективная температура на солнце - температура, которую ощущает человек, с поправкой на солнечный нагрев. Характеристика знойности погоды. Зависит от высоты солнца над горизонтом, облачности и скорости ветра. Ночью, в пасмурную погоду, а также при ветре 12 м/с и более поправка равна нулю.
P - Атмосферное давление - приведенное к уровню моря атмосферное давление.
Po - Атмосферное давление - измеренное на уровне метеостанции атмосферное давление.
Tmin - Минимальная температура - минимум температуры воздуха на высоте 2 м над землей.
Tmax - Максимальная температура - максимум температуры воздуха на высоте 2 м над землей.
R - Количество осадков - Количество выпавших осадков за период времени, мм. При наведении курсора мыши на число - период времени, за который выпало указанное количество осадков.
R24 - Количество осадков - Количество выпавших осадков за 24 часа, мм.
S - Снежный покров - Высота снежного покрова, см. При наведении курсора мыши на число - состояние снежного покрова и степень покрытия местности в баллах.